EW4941 Weather Reports


Display with metric or nautical units.
time (UTC)temp
F
wind
direction
speed
MPH
gust
MPH
rain 1hr
in
rain 24hr
in
rain mn
in
humidity
%
barometer
mb
20190322115039 33 351 9.0 18.0 0.00 0.00 0.00 76 1001.9
20190322114539 33 20 9.0 18.0 0.00 0.00 0.00 76 1002.2
20190322114037 33 29 8.0 16.0 0.00 0.00 0.00 77 1002.5
20190322113538 33 5 7.0 14.0 0.00 0.00 0.00 77 1002.5
20190322113038 33 13 7.0 14.0 0.00 0.00 0.00 77 1002.7
20190322112539 33 13 8.0 14.0 0.00 0.00 0.00 77 1002.9
20190322112038 33 0 7.0 11.0 0.00 0.00 0.00 77 1003.0
20190322111539 33 342 6.0 11.0 0.00 0.00 0.00 78 1003.3
20190322111038 33 40 6.0 10.0 0.00 0.00 0.00 78 1003.4
20190322110538 33 355 7.0 11.0 0.00 0.00 0.00 78 1003.4
20190322110038 32 0 6.0 11.0 0.00 0.00 0.00 78 1003.6
20190322105539 33 350 5.0 10.0 0.00 0.00 0.00 78 1003.7
20190322105039 33 13 6.0 10.0 0.00 0.00 0.00 78 1003.9
20190322104538 33 26 7.0 10.0 0.00 0.00 0.00 78 1003.8
20190322104037 33 351 8.0 12.0 0.00 0.00 0.00 78 1003.9
20190322103537 33 0 7.0 12.0 0.00 0.00 0.00 78 1004.0
20190322103038 33 345 6.0 12.0 0.00 0.00 0.00 79 1004.2
20190322102538 33 11 7.0 14.0 0.00 0.00 0.00 79 1004.4
20190322102039 33 5 8.0 14.0 0.00 0.00 0.00 79 1004.5
20190322101539 33 346 6.0 12.0 0.00 0.00 0.00 79 1004.6
20190322101038 33 340 4.0 8.0 0.00 0.00 0.00 79 1005.2
20190322100538 33 15 5.0 9.0 0.00 0.00 0.00 79 1005.3
20190322100038 33 36 6.0 9.0 0.00 0.00 0.00 79 1005.5
20190322095539 33 48 6.0 8.0 0.00 0.00 0.00 79 1005.7
20190322095038 33 36 5.0 9.0 0.00 0.00 0.00 79 1005.8
20190322094543 33 50 5.0 9.0 0.00 0.00 0.00 79 1005.8
20190322094038 33 60 5.0 9.0 0.00 0.00 0.00 80 1005.8
20190322093537 33 21 6.0 9.0 0.00 0.00 0.00 80 1005.5
20190322093037 33 21 6.0 9.0 0.00 0.00 0.00 80 1005.2
20190322092538 33 341 5.0 9.0 0.00 0.00 0.00 80 1005.1
20190322092038 33 343 5.0 9.0 0.00 0.00 0.00 80 1005.2
20190322091540 33 355 5.0 8.0 0.00 0.00 0.00 80 1005.4
20190322091039 33 42 5.0 8.0 0.00 0.00 0.00 80 1005.5
20190322090537 33 325 6.0 10.0 0.00 0.00 0.00 80 1005.7
20190322090037 33 355 6.0 10.0 0.00 0.00 0.00 80 1005.5
20190322085539 33 0 5.0 8.0 0.00 0.00 0.00 80 1005.8
20190322085038 33 5 5.0 9.0 0.00 0.00 0.00 81 1006.2
20190322084538 33 24 5.0 9.0 0.00 0.00 0.00 81 1006.2
20190322084038 33 350 4.0 8.0 0.00 0.00 0.00 81 1006.3
20190322083539 33 355 4.0 7.0 0.00 0.00 0.00 81 1006.5
20190322083038 33 351 4.0 7.0 0.00 0.00 0.00 81 1006.6
20190322082537 33 350 4.0 7.0 0.00 0.00 0.00 81 1006.8
20190322082037 33 40 4.0 7.0 0.00 0.00 0.00 81 1006.9
20190322081536 33 20 3.0 6.0 0.00 0.00 0.00 81 1007.4
20190322081037 33 32 2.0 6.0 0.00 0.00 0.00 81 1007.5
20190322080535 33 23 1.0 6.0 0.00 0.00 0.00 81 1007.8
20190322080037 33 5 2.0 4.0 0.00 0.00 0.00 81 1008.1
20190322075536 33 5 2.0 4.0 0.00 0.00 0.00 81 1007.7
20190322075033 33 5 2.0 5.0 0.00 0.00 0.00 81 1007.7
20190322074535 33 355 2.0 5.0 0.00 0.00 0.00 81 1008.0
20190322074034 33 12 1.0 4.0 0.00 0.00 0.00 81 1008.1
20190322073534 33 14 1.0 4.0 0.00 0.00 0.00 81 1008.4
20190322073033 33 13 3.0 6.0 0.00 0.00 0.00 81 1008.5
20190322072533 33 44 3.0 6.0 0.00 0.00 0.00 81 1008.3
20190322072033 33 11 2.0 6.0 0.00 0.00 0.00 80 1008.5
20190322071535 33 5 2.0 5.0 0.00 0.00 0.00 80 1008.6
20190322071035 33 5 4.0 8.0 0.00 0.00 0.00 80 1008.8
20190322070530 33 0 4.0 8.0 0.00 0.00 0.00 80 1008.7
20190322070032 33 0 4.0 7.0 0.00 0.00 0.00 80 1008.8
20190322065533 34 26 3.0 6.0 0.00 0.00 0.00 80 1009.0
20190322065031 34 355 1.0 5.0 0.00 0.00 0.00 80 1009.7
20190322064530 34 17 0.0 3.0 0.00 0.00 0.00 80 1010.2
20190322064029 34 17 1.0 4.0 0.00 0.00 0.00 80 1010.2
20190322063531 34 17 2.0 5.0 0.00 0.00 0.00 80 1010.2
20190322063030 34 66 3.0 6.0 0.00 0.00 0.00 80 1010.0
20190322062529 34 44 3.0 7.0 0.00 0.00 0.00 80 1010.0
20190322062028 34 65 4.0 8.0 0.00 0.00 0.00 80 1010.2
20190322061527 34 42 3.0 8.0 0.00 0.00 0.00 80 1010.3
20190322061028 34 56 2.0 6.0 0.00 0.00 0.00 80 1010.4
20190322060528 34 75 3.0 6.0 0.00 0.00 0.00 79 1010.5
20190322060029 34 50 4.0 6.0 0.00 0.00 0.00 79 1010.6
20190322055528 34 34 3.0 6.0 0.00 0.00 0.00 79 1010.6
20190322055027 34 26 3.0 5.0 0.00 0.00 0.00 79 1010.9
20190322054529 34 94 2.0 5.0 0.00 0.00 0.00 79 1011.4
20190322054027 34 95 2.0 6.0 0.00 0.00 0.00 79 1011.6
20190322053528 34 83 3.0 6.0 0.00 0.00 0.00 79 1011.6
20190322053028 34 111 3.0 6.0 0.00 0.00 0.00 79 1011.7
20190322052525 34 92 2.0 6.0 0.00 0.00 0.00 79 1011.6
20190322052025 34 38 2.0 6.0 0.00 0.00 0.00 79 1011.6
20190322051524 34 65 2.0 6.0 0.00 0.00 0.00 78 1011.6
20190322051025 34 53 2.0 6.0 0.00 0.00 0.00 78 1011.7
20190322050525 34 94 1.0 4.0 0.00 0.00 0.00 78 1011.8
20190322050033 34 63 1.0 4.0 0.00 0.00 0.00 78 1011.9
20190322045524 34 61 0.0 4.0 0.00 0.00 0.00 78 1012.0
20190322045022 34 61 1.0 4.0 0.00 0.00 0.00 78 1012.2
20190322044522 34 61 1.0 4.0 0.00 0.00 0.00 78 1012.3
20190322044024 34 74 1.0 6.0 0.00 0.00 0.00 77 1012.2
20190322043523 34 48 1.0 6.0 0.00 0.00 0.00 78 1012.2
20190322043023 34 58 0.0 0.0 0.00 0.00 0.00 78 1012.4
20190322042525 34 58 0.0 0.0 0.00 0.00 0.00 78 1012.5
20190322042023 34 58 0.0 1.0 0.00 0.00 0.00 77 1012.6
20190322041525 34 58 0.0 4.0 0.00 0.00 0.00 77 1012.6
20190322041024 34 57 1.0 4.0 0.00 0.00 0.00 76 1012.9
20190322040522 34 57 1.0 4.0 0.00 0.00 0.00 76 1012.8
20190322040022 35 57 2.0 5.0 0.00 0.00 0.00 76 1012.7
20190322035523 34 55 1.0 5.0 0.00 0.00 0.00 76 1012.8
20190322035021 35 51 1.0 4.0 0.00 0.00 0.00 75 1012.8
20190322034520 35 51 1.0 4.0 0.00 0.00 0.00 76 1013.0
20190322034019 35 51 2.0 5.0 0.00 0.00 0.00 75 1013.1
20190322033519 35 51 1.0 5.0 0.00 0.00 0.00 75 1013.1
20190322033020 35 55 1.0 4.0 0.00 0.00 0.00 75 1013.2
20190322032521 35 57 1.0 4.0 0.00 0.00 0.00 75 1013.3
20190322032020 35 65 1.0 5.0 0.00 0.00 0.00 75 1013.4
20190322031519 35 71 2.0 5.0 0.00 0.00 0.00 74 1013.5
20190322031020 35 64 2.0 5.0 0.00 0.00 0.00 74 1013.5
20190322030517 35 67 1.0 5.0 0.00 0.00 0.00 74 1013.7
20190322030017 35 61 0.0 4.0 0.00 0.00 0.00 74 1013.9
20190322025517 35 120 0.0 1.0 0.00 0.00 0.00 74 1014.1
20190322025017 35 121 0.0 0.0 0.00 0.00 0.00 73 1014.2
20190322024518 35 121 0.0 0.0 0.00 0.00 0.00 73 1014.3
20190322024017 35 119 0.0 4.0 0.00 0.00 0.00 73 1014.5
20190322023516 35 119 1.0 4.0 0.00 0.00 0.00 72 1014.7
20190322023016 35 120 0.0 2.0 0.00 0.00 0.00 72 1014.9
20190322022515 35 121 1.0 4.0 0.00 0.00 0.00 72 1014.9
20190322022014 36 128 2.0 4.0 0.00 0.00 0.00 72 1015.1
20190322021515 36 126 2.0 6.0 0.00 0.00 0.00 72 1015.2
20190322021014 36 107 2.0 6.0 0.00 0.00 0.00 71 1015.2
20190322020516 36 148 3.0 5.0 0.00 0.00 0.00 71 1015.3
20190322020015 36 147 2.0 5.0 0.00 0.00 0.00 70 1015.4
20190322015517 36 139 2.0 5.0 0.00 0.00 0.00 70 1015.4
20190322015015 36 157 2.0 5.0 0.00 0.00 0.00 69 1015.5
20190322014515 36 134 2.0 5.0 0.00 0.00 0.00 69 1015.6
20190322014016 36 146 3.0 5.0 0.00 0.00 0.00 69 1015.7
20190322013515 36 150 3.0 5.0 0.00 0.00 0.00 68 1015.8
20190322013014 36 154 3.0 5.0 0.00 0.00 0.00 68 1015.9
20190322012516 36 147 2.0 5.0 0.00 0.00 0.00 67 1016.1
20190322012016 36 140 3.0 8.0 0.00 0.00 0.00 66 1016.2
20190322011515 37 150 4.0 8.0 0.00 0.00 0.00 66 1016.3
20190322011015 37 145 4.0 8.0 0.00 0.00 0.00 65 1016.3
20190322010515 37 180 4.0 8.0 0.00 0.00 0.00 64 1016.2
20190322010016 37 147 4.0 8.0 0.00 0.00 0.00 63 1016.1
20190322005513 37 156 5.0 7.0 0.00 0.00 0.00 63 1016.1
20190322005021 37 144 4.0 7.0 0.00 0.00 0.00 62 1016.2
20190322004519 37 134 4.0 7.0 0.00 0.00 0.00 62 1016.2
20190322004012 37 138 5.0 9.0 0.00 0.00 0.00 62 1016.3
20190322003743 37 170 5.0 9.0 0.00 0.00 0.00 61 1016.2
20190322003011 37 137 4.0 7.0 0.00 0.00 0.00 61 1016.2
20190322002511 37 145 4.0 10.0 0.00 0.00 0.00 59 1016.3
20190322002010 38 101 4.0 10.0 0.00 0.00 0.00 59 1016.3
20190322001512 37 120 3.0 9.0 0.00 0.00 0.00 59 1016.3
20190322001009 37 121 3.0 7.0 0.00 0.00 0.00 58 1016.2
20190322000508 37 147 3.0 7.0 0.00 0.00 0.00 60 1016.3
20190322000008 38 143 3.0 7.0 0.00 0.00 0.00 58 1016.3
20190321235507 37 134 4.0 8.0 0.00 0.00 0.00 59 1016.4
20190321235007 38 128 4.0 8.0 0.00 0.00 0.00 57 1016.5
20190321234508 38 140 5.0 8.0 0.00 0.00 0.00 58 1016.5
20190321234007 38 159 6.0 8.0 0.00 0.00 0.00 57 1016.4
20190321233516 38 144 6.0 10.0 0.00 0.00 0.00 57 1016.4
20190321233008 38 151 6.0 10.0 0.00 0.00 0.00 58 1016.4
20190321232508 38 161 5.0 10.0 0.00 0.00 0.00 58 1016.5
20190321232007 38 155 6.0 9.0 0.00 0.00 0.00 57 1016.7
20190321231507 38 160 6.0 10.0 0.00 0.00 0.00 59 1016.7
20190321231007 38 119 7.0 12.0 0.00 0.00 0.00 59 1016.8
20190321230512 38 142 7.0 12.0 0.00 0.00 0.00 58 1016.8
20190321230007 38 155 7.0 12.0 0.00 0.00 0.00 57 1016.8
20190321225508 38 137 7.0 12.0 0.00 0.00 0.00 57 1016.8
20190321225007 38 164 7.0 12.0 0.00 0.00 0.00 56 1016.8
20190321224509 38 126 7.0 12.0 0.00 0.00 0.00 56 1016.9
20190321224008 39 165 6.0 11.0 0.00 0.00 0.00 55 1016.9
20190321223508 39 161 6.0 12.0 0.00 0.00 0.00 56 1016.9
20190321223007 39 138 7.0 12.0 0.00 0.00 0.00 54 1017.0
20190321222507 39 138 6.0 10.0 0.00 0.00 0.00 53 1017.1
20190321222007 39 136 6.0 11.0 0.00 0.00 0.00 53 1017.2
20190321221508 39 185 7.0 13.0 0.00 0.00 0.00 51 1017.2
20190321221007 39 169 8.0 15.0 0.00 0.00 0.00 52 1017.1
20190321220508 39 142 8.0 15.0 0.00 0.00 0.00 53 1017.2
20190321220007 39 163 8.0 16.0 0.00 0.00 0.00 52 1017.2
20190321215507 39 163 8.0 16.0 0.00 0.00 0.00 53 1017.3
20190321215007 40 142 8.0 16.0 0.00 0.00 0.00 54 1017.4
20190321214508 40 171 8.0 16.0 0.00 0.00 0.00 52 1017.5
20190321214008 40 181 8.0 16.0 0.00 0.00 0.00 53 1017.6
20190321213506 40 141 8.0 16.0 0.00 0.00 0.00 54 1017.6
20190321213007 40 202 9.0 16.0 0.00 0.00 0.00 56 1017.7
20190321212506 40 188 8.0 19.0 0.00 0.00 0.00 56 1017.6
20190321212006 40 158 8.0 22.0 0.00 0.00 0.00 56 1017.8
20190321211506 40 176 9.0 22.0 0.00 0.00 0.00 56 1018.0
20190321211006 40 167 9.0 19.0 0.00 0.00 0.00 56 1018.0
20190321210507 40 173 10.0 20.0 0.00 0.00 0.00 56 1017.8
20190321210008 40 202 10.0 20.0 0.00 0.00 0.00 56 1018.1
20190321205507 41 172 10.0 19.0 0.00 0.00 0.00 56 1018.1
20190321205006 41 147 9.0 19.0 0.00 0.00 0.00 55 1018.1
20190321204504 42 162 8.0 19.0 0.00 0.00 0.00 52 1018.1
20190321204007 42 183 10.0 19.0 0.00 0.00 0.00 52 1018.1
20190321203504 42 144 10.0 19.0 0.00 0.00 0.00 50 1018.0
20190321203004 42 126 10.0 21.0 0.00 0.00 0.00 50 1018.1
20190321202506 42 159 10.0 21.0 0.00 0.00 0.00 50 1018.0
20190321202005 42 125 10.0 21.0 0.00 0.00 0.00 50 1018.0
20190321201506 42 163 10.0 21.0 0.00 0.00 0.00 51 1018.0
20190321201004 43 162 9.0 15.0 0.00 0.00 0.00 51 1018.1
20190321200506 43 155 9.0 20.0 0.00 0.00 0.00 50 1018.1
20190321200005 43 158 9.0 20.0 0.00 0.00 0.00 49 1018.2
20190321195504 43 135 9.0 15.0 0.00 0.00 0.00 48 1018.2
20190321195237 43 181 8.0 13.0 0.00 0.00 0.00 48 1018.2
20190321195013 43 181 8.0 13.0 0.00 0.00 0.00 48 1018.2
20190321194504 43 165 9.0 16.0 0.00 0.00 0.00 47 1018.2
20190321194006 43 157 9.0 16.0 0.00 0.00 0.00 47 1018.1
20190321193506 43 174 8.0 16.0 0.00 0.00 0.00 48 1018.2
20190321193003 44 157 9.0 19.0 0.00 0.00 0.00 45 1018.2
20190321192501 44 215 11.0 19.0 0.00 0.00 0.00 45 1018.1
20190321192000 44 176 10.0 20.0 0.00 0.00 0.00 43 1018.2
20190321191502 44 176 10.0 20.0 0.00 0.00 0.00 43 1018.1
20190321191001 43 148 9.0 18.0 0.00 0.00 0.00 45 1018.2
20190321190501 44 196 7.0 18.0 0.00 0.00 0.00 44 1018.4
20190321190001 44 155 7.0 16.0 0.00 0.00 0.00 42 1018.4
20190321185500 44 182 8.0 20.0 0.00 0.00 0.00 42 1018.4
20190321185000 44 177 10.0 20.0 0.00 0.00 0.00 43 1018.3
20190321184500 44 189 10.0 20.0 0.00 0.00 0.00 41 1018.1
20190321183958 44 171 10.0 20.0 0.00 0.00 0.00 41 1018.2
20190321183500 44 170 9.0 18.0 0.00 0.00 0.00 39 1018.4
20190321182958 44 138 10.0 19.0 0.00 0.00 0.00 37 1018.5
20190321182458 44 153 10.0 19.0 0.00 0.00 0.00 36 1018.7
20190321181959 44 142 9.0 16.0 0.00 0.00 0.00 39 1018.6
20190321181458 44 169 9.0 18.0 0.00 0.00 0.00 37 1018.7
20190321180958 44 148 9.0 18.0 0.00 0.00 0.00 36 1018.8
20190321180500 44 151 9.0 15.0 0.00 0.00 0.00 38 1018.9
20190321175958 44 156 9.0 15.0 0.00 0.00 0.00 40 1018.9
20190321175459 44 188 8.0 15.0 0.00 0.00 0.00 40 1019.0
20190321174956 44 134 8.0 14.0 0.00 0.00 0.00 39 1019.0
20190321174458 44 200 9.0 18.0 0.00 0.00 0.00 40 1019.0
20190321173959 44 164 9.0 18.0 0.00 0.00 0.00 40 1019.2
20190321173456 43 170 8.0 16.0 0.00 0.00 0.00 41 1019.3
20190321172958 44 143 9.0 16.0 0.00 0.00 0.00 41 1019.3
20190321172456 44 185 9.0 19.0 0.00 0.00 0.00 40 1019.5
20190321171956 45 179 9.0 19.0 0.00 0.00 0.00 38 1019.5
20190321171458 45 140 8.0 14.0 0.00 0.00 0.00 38 1019.5
20190321170956 46 186 7.0 16.0 0.00 0.00 0.00 37 1019.8
20190321170458 47 208 9.0 19.0 0.00 0.00 0.00 35 1019.6
20190321165954 46 190 10.0 19.0 0.00 0.00 0.00 38 1019.6
20190321165454 45 136 9.0 19.0 0.00 0.00 0.00 39 1019.8
20190321164954 45 179 8.0 14.0 0.00 0.00 0.00 40 1019.8
20190321164454 46 247 7.0 14.0 0.00 0.00 0.00 38 1019.9
20190321163955 46 182 7.0 11.0 0.00 0.00 0.00 39 1020.1
20190321163456 45 169 6.0 14.0 0.00 0.00 0.00 38 1020.2
20190321162954 44 190 6.0 14.0 0.00 0.00 0.00 39 1020.1
20190321162454 44 227 7.0 16.0 0.00 0.00 0.00 38 1020.1
20190321161954 44 208 8.0 16.0 0.00 0.00 0.00 37 1020.3
20190321161455 45 184 7.0 15.0 0.00 0.00 0.00 38 1020.3
20190321160954 45 173 8.0 15.0 0.00 0.00 0.00 37 1020.3
20190321160455 44 234 8.0 14.0 0.00 0.00 0.00 38 1020.4
20190321155954 44 163 8.0 14.0 0.00 0.00 0.00 38 1020.7
20190321155455 44 176 8.0 14.0 0.00 0.00 0.00 40 1020.7
20190321154955 44 168 8.0 15.0 0.00 0.00 0.00 37 1020.7
20190321154454 44 173 8.0 15.0 0.00 0.00 0.00 40 1020.7
20190321153954 44 192 7.0 13.0 0.00 0.00 0.00 40 1020.9
20190321153455 43 176 7.0 15.0 0.00 0.00 0.00 42 1020.9
20190321152954 44 166 8.0 16.0 0.00 0.00 0.00 41 1021.0
20190321152454 43 186 8.0 16.0 0.00 0.00 0.00 41 1021.0
20190321151954 43 155 7.0 15.0 0.00 0.00 0.00 43 1021.0
20190321151455 42 207 7.0 15.0 0.00 0.00 0.00 45 1021.0
20190321150955 42 215 6.0 10.0 0.00 0.00 0.00 48 1021.1
20190321150456 42 142 6.0 11.0 0.00 0.00 0.00 50 1021.1
20190321145954 41 198 6.0 14.0 0.00 0.00 0.00 51 1021.1
20190321145454 41 193 6.0 14.0 0.00 0.00 0.00 55 1021.2
20190321144954 40 147 6.0 11.0 0.00 0.00 0.00 59 1021.3
20190321144453 40 171 5.0 11.0 0.00 0.00 0.00 60 1021.4
20190321143955 40 175 5.0 10.0 0.00 0.00 0.00 61 1021.5
20190321143455 40 201 6.0 10.0 0.00 0.00 0.00 61 1021.5
20190321142954 39 161 6.0 13.0 0.00 0.00 0.00 64 1021.5
20190321142454 38 156 6.0 13.0 0.00 0.00 0.00 64 1021.5
20190321141954 37 167 6.0 10.0 0.00 0.00 0.00 66 1021.4
20190321141455 37 165 5.0 9.0 0.00 0.00 0.00 67 1021.5
20190321140954 37 146 4.0 9.0 0.00 0.00 0.00 67 1021.7
20190321140453 36 187 5.0 11.0 0.00 0.00 0.00 67 1021.7
20190321135954 36 169 5.0 11.0 0.00 0.00 0.00 67 1021.7
20190321135454 36 188 5.0 10.0 0.00 0.00 0.00 68 1021.8
20190321134955 35 169 5.0 10.0 0.00 0.00 0.00 69 1021.8
20190321134454 35 182 4.0 9.0 0.00 0.00 0.00 68 1021.8
20190321133956 35 220 4.0 8.0 0.00 0.00 0.00 69 1021.8
20190321133456 35 169 3.0 11.0 0.00 0.00 0.00 70 1021.7
20190321132956 35 175 3.0 11.0 0.00 0.00 0.00 70 1021.8
20190321132453 34 210 3.0 7.0 0.00 0.00 0.00 70 1022.0
20190321131954 34 199 5.0 10.0 0.00 0.00 0.00 71 1022.1
20190321131453 33 219 4.0 10.0 0.00 0.00 0.00 71 1022.0
20190321130958 33 181 3.0 9.0 0.00 0.00 0.00 71 1022.0
20190321130455 33 219 4.0 9.0 0.00 0.00 0.00 71 1022.0
20190321125953 33 163 3.0 7.0 0.00 0.00 0.00 72 1022.0
20190321125455 32 140 1.0 7.0 0.00 0.00 0.00 73 1022.0
20190321124956 31 167 0.0 1.0 0.00 0.00 0.00 75 1022.2
20190321124728 31 167 0.0 0.0 0.00 0.00 0.00 75 1022.2
20190321124458 31 167 0.0 0.0 0.00 0.00 0.00 75 1022.2
20190321123954 31 167 0.0 1.0 0.00 0.00 0.00 75 1022.1
20190321123453 31 166 0.0 2.0 0.00 0.00 0.00 76 1022.4
20190321122953 31 165 1.0 6.0 0.00 0.00 0.00 76 1022.1
20190321122454 30 155 1.0 6.0 0.00 0.00 0.00 77 1022.1
20190321121954 30 200 0.0 2.0 0.00 0.00 0.00 78 1022.2
20190321121455 29 242 0.0 2.0 0.00 0.00 0.00 79 1022.2
20190321120955 29 242 0.0 5.0 0.00 0.00 0.00 80 1022.2
20190321120455 28 196 0.0 5.0 0.00 0.00 0.00 80 1022.2
20190321115953 28 209 0.0 2.0 0.00 0.00 0.00 81 1022.3
20190321115455 28 215 0.0 2.0 0.00 0.00 0.00 81 1022.3